Home > Weather > Vincennes > Past weeks

Flag for USA Weather for the Past 2 Weeks in Vincennes, Indiana, USA

Now
55 °F

Partly sunny.


Feels Like: 51 °F
Forecast: 44 / 62 °F
Wind: 16 mph from Northeast

Location: Lawrenceville-Vincennes International Airport

Current Time: May 5, 2016 at 12:35:54 PM

Latest Report: May 5, 2016 at 11:53 AM


Visibility: 10 mi

Pressure: 29.95 "Hg

Humidity: 64%

Dew Point: 43 °F

Location of VincennesLocation

Historic Weather in Vincennes — Graph

°F

Vincennes Temperature Yesterday

Maximum temperature yesterday: 64 °F (at 1:53 PM)
Minimum temperature yesterday: 51 °F (at 1:53 AM)
Average temperature yesterday: 55 °F

High & Low Weather Summary for the Past Weeks

 TemperatureHumidityPressure
High82 °F (Apr 20, 3:53 PM)100% (Apr 24, 3:01 AM)30.18 "Hg (Apr 24, 3:01 AM)
Low44 °F (Apr 24, 6:53 AM)26% (Apr 20, 3:53 PM)29.69 "Hg (Apr 27, 8:53 PM)
Average62 °F77%29.90 "Hg
* Reported Apr 20 10:53 AM — May 5 10:53 AM, Vincennes, Weather by CustomWeather, © 2016

Note: Actual official high and low records may vary slightly from our data, if they occured in-between our weather recording intervals... More about our weather records

Advertising

Vincennes Weather History for the Previous 24 Hours

Scroll right to see more
 ConditionsComfort  
Time TempWeatherWind HumidityBarometerVisibility
10:53 AM
Thu, May 5
50 °FOvercast.13 mph71%29.93 "Hg10 mi
9:53 AM48 °FMostly cloudy.14 mph77%29.92 "Hg10 mi
8:53 AM46 °FOvercast.14 mph77%29.89 "Hg10 mi
7:53 AM45 °FOvercast.13 mph76%29.86 "Hg10 mi
6:53 AM45 °FPartly cloudy.18 mph74%29.83 "Hg10 mi
6:03 AM46 °FPassing clouds.18 mph71%29.82 "Hg10 mi
5:53 AM45 °FPassing clouds.14 mph74%29.81 "Hg10 mi
4:53 AM48 °FPassing clouds.14 mph71%29.81 "Hg10 mi
3:53 AM50 °FOvercast.14 mph80%29.81 "Hg10 mi
2:53 AM50 °FOvercast.8 mph86%29.81 "Hg10 mi
1:53 AM50 °FOvercast.6 mph83%29.82 "Hg10 mi
12:53 AM51 °FOvercast.6 mph80%29.82 "Hg10 mi
11:53 PM
Wed, May 4
51 °FOvercast.3 mph80%29.84 "Hg10 mi
10:53 PM52 °FOvercast.6 mph72%29.85 "Hg10 mi
9:53 PM52 °FPassing clouds.8 mph69%29.85 "Hg10 mi
8:53 PM53 °FPassing clouds.13 mph66%29.84 "Hg10 mi
7:53 PM56 °FOvercast.18 mph58%29.82 "Hg10 mi
6:53 PM58 °FPartly sunny.25 mph54%29.80 "Hg10 mi
5:53 PM59 °FMostly cloudy.21 mph54%29.78 "Hg10 mi
4:53 PM60 °FBroken clouds.10 mph60%29.77 "Hg10 mi
3:53 PM62 °FBroken clouds.20 mph50%29.75 "Hg10 mi
2:53 PM62 °FPartly sunny.22 mph50%29.74 "Hg10 mi
1:53 PM64 °FScattered clouds.23 mph49%29.74 "Hg10 mi
12:53 PM62 °FScattered clouds.20 mph60%29.73 "Hg10 mi
Weather by CustomWeather, © 2016

See weather overviewHow to use our weather pages